[[{"header":{"parameterUnit":"m.s-1","parameterCategory":1,"la1":30.2991,"la2":30.254,"lo1":-89.0895,"lo2":-89.0444,"dy":0.0017,"dx":0.0017,"nx":28,"ny":28,"refTime":"2025-04-06T21:00:00:Z","depth":0,"parameterNumber":2,"parameterNumberName":"U-component_of_WINDS"},"data":[0,0,0,0,0,0,0,0,0,0,0,0,0,0,0,0,0,0,0,0,0,0,0,0,0,0,0,0,0,0,0,0,0,0,0,0,0,0,0,0,0,0,0,0,0,0,0,0,0,0,0,0,0,0,0,0,0,0,3.5132,3.5132,0,3.5121,3.5121,3.5121,3.5045,3.5043,3.5042,3.504,3.5028,3.5029,3.503,0,0,0,0,0,0,0,0,0,0,0,0,0,3.5086,3.5087,3.5132,3.5132,3.5132,3.5121,3.5121,3.5121,3.5046,3.5043,3.5041,3.5039,3.5027,3.5029,3.5031,0,0,0,0,0,0,0,0,0,0,0,0,0,3.5094,3.5088,3.5133,3.5093,3.509,3.5121,3.5121,3.5121,3.5046,3.5043,3.5041,3.5038,3.5027,3.5029,3.5031,3.5099,0,0,3.5037,3.5038,0,0,0,0,0,0,0,0,3.5093,3.5096,3.5099,3.5096,3.5092,3.5082,3.51,3.5114,3.5047,3.5063,3.504,3.5037,3.5048,3.5048,3.5052,3.5098,3.5098,3.5037,3.5039,3.504,3.504,0,0,0,0,0,0,0,3.5093,3.5096,3.5128,3.5099,3.5095,3.5075,3.5073,3.5102,3.5071,3.5061,3.5056,3.5055,3.5045,3.505,3.5051,3.5098,3.5037,3.5039,3.5041,3.5041,3.5195,3.5198,0,0,0,0,0,0,3.5098,3.5096,3.5128,3.5128,3.5086,3.5079,3.5076,3.5088,3.507,3.5065,3.5058,3.5052,3.5048,3.5049,3.5051,3.5126,3.504,3.5042,3.5043,3.5192,3.5195,3.5199,0,0,0,0,0,0,3.5098,3.5102,3.5129,3.511,3.5112,3.5082,3.5096,3.5089,3.5094,3.5068,3.5062,3.5068,3.5046,3.5048,3.5086,3.5124,3.5042,3.5044,3.5189,3.5193,3.5197,3.5279,0,0,0,0,0,0,3.5097,3.5102,3.5129,3.5111,3.5113,3.5166,3.5098,3.5091,3.5098,3.509,3.5076,3.5071,3.5044,3.5084,3.5089,3.5126,3.5046,3.5185,3.5191,3.5196,3.5273,3.5285,3.5296,0,0,0,0,0,3.5095,3.5153,3.513,3.5135,3.5146,3.5169,3.517,3.5137,3.5101,3.5126,3.5109,3.5072,3.512,3.5088,3.5093,3.5132,3.5183,3.5189,3.5195,3.5267,3.5283,3.5296,0,0,0,0,0,0,3.5176,3.515,3.5125,3.5179,3.5176,3.5156,3.5187,3.5155,3.5163,3.5155,3.5114,3.5112,3.5156,3.5148,3.5113,3.5194,3.5145,3.5152,3.5198,3.5212,3.5224,3.5224,3.5048,0,0,0,0,0,3.52,3.5221,3.5197,3.5247,3.5247,3.5218,3.5226,3.5201,3.5197,3.5195,3.5181,3.5178,3.5192,3.5202,3.5214,3.5272,3.5266,3.53,3.5312,3.5322,3.5328,3.5354,3.5368,3.5219,3.5219,3.5219,0,0,3.525,3.5238,3.5254,3.5263,3.5258,3.5279,3.5217,3.5243,3.5258,3.5199,3.5234,3.5224,3.5217,3.5265,3.5285,3.526,3.5368,3.533,3.5338,3.5339,3.5362,3.5376,3.5389,3.5224,3.5223,3.5222,0,0,3.5351,3.5346,3.5385,3.5381,3.5374,3.5353,3.5363,3.5347,3.5337,3.5371,3.5327,3.5344,3.537,3.5365,3.5367,3.5464,3.5428,3.5469,3.553,3.5556,3.5568,3.5578,3.5609,3.5621,3.5476,3.5476,3.5476,0,3.5414,3.5445,3.5409,3.5437,3.544,3.5388,3.5426,3.5424,3.5421,3.5424,3.5396,3.5425,3.5417,3.5461,3.5484,3.5489,3.5496,3.5469,3.5569,3.5579,3.5587,3.5616,3.5629,3.5481,3.548,3.548,3.5479,0,3.552,3.5542,3.5574,3.5572,3.5579,3.5613,3.558,3.5592,3.5566,3.5548,3.5582,3.5571,3.5577,3.5587,3.5562,3.5626,3.561,3.5576,3.5525,3.5607,3.5633,3.5644,3.5488,3.5486,3.5485,3.5483,0,0,3.5672,3.5648,3.566,3.5656,3.5644,3.5659,3.5689,3.5695,3.5704,3.5704,3.5726,3.5748,3.5715,3.5717,3.5691,3.5715,3.5787,3.5677,3.5676,3.5695,3.5853,3.5876,3.589,3.5764,3.5766,3.5768,3.5852,0,3.5766,3.5815,3.5782,3.5836,3.5853,3.5803,3.5828,3.5822,3.5806,3.5818,3.5799,3.5814,3.5772,3.5772,3.5793,3.5774,3.5818,3.5768,3.5782,3.5783,3.5782,3.5904,3.593,3.6009,3.5863,3.5864,3.5866,0,3.5882,3.5885,3.594,3.592,3.5927,3.595,3.5951,3.5964,3.5955,3.5942,3.5942,3.591,3.5935,3.5887,3.592,3.5886,3.589,3.5882,3.5884,3.5881,3.5827,3.5902,3.6035,3.6045,3.5882,3.5881,3.588,0,3.5983,3.6001,3.6035,3.6034,3.6013,3.603,3.6022,3.6011,3.6015,3.6017,3.6018,3.6023,3.6025,3.6029,3.5997,3.5965,3.6033,3.5983,3.602,3.602,3.6034,3.6033,3.6166,3.6043,3.6042,3.6042,3.6042,0,3.6089,3.6124,3.6079,3.61,3.6136,3.6098,3.6135,3.6122,3.6112,3.6127,3.6085,3.6101,3.606,3.6071,3.6047,3.6076,3.6078,3.6066,3.6058,3.6068,3.6069,3.6067,3.606,3.6045,3.6045,3.6044,3.6044,0,3.6207,3.6179,3.6211,3.6188,3.6183,3.6211,3.619,3.6207,3.6188,3.6208,3.6211,3.618,3.619,3.616,3.6166,3.615,3.619,3.6176,3.6193,3.6187,3.6225,3.622,3.6359,3.6374,3.6244,3.6246,3.6247,0,3.6275,3.63,3.6279,3.6286,3.628,3.6293,3.6297,3.626,3.6266,3.6256,3.6274,3.6281,3.6284,3.6303,3.628,3.6283,3.6266,3.6315,3.6267,3.6274,3.6263,3.626,3.6261,3.6324,3.6325,3.6327,3.6328,0,3.6398,3.6382,3.6389,3.6391,3.6396,3.6396,3.6393,3.6401,3.6362,3.637,3.6379,3.6382,3.6387,3.6393,3.6391,3.6381,3.6347,3.6343,3.6351,3.636,3.6367,3.636,3.6216,3.634,3.6339,3.6338,3.6337,3.6337,3.649,3.6509,3.6496,3.6504,3.6497,3.6495,3.6508,3.649,3.6497,3.6498,3.6476,3.6489,3.6477,3.6471,3.6465,3.6474,3.6451,3.6464,3.6467,3.6469,3.6474,3.6368,3.6474,3.6473,3.6473,3.6473,3.6472,0,3.6608,3.6596,3.6605,3.66,3.6606,3.6574,3.6568,3.6575,3.6587,3.6579,3.6582,3.6591,3.6596,3.6574,3.6575,3.6586,3.657,3.6588,3.6585,3.6582,3.6496,3.6487,3.66,3.66,3.66,3.66,3.66,3.66,3.6669,3.6697,3.668,3.6703,3.6691,3.6703,3.6702,3.6698,3.6691,3.6703,3.6707,3.6692,3.6677,3.6677,3.6679,3.6672,3.6673,3.6695,3.6682,3.6602,3.6589,3.6577,3.6568,3.6696,3.6697,3.6767,3.6768,3.6768]},{"header":{"parameterUnit":"m.s-1","parameterCategory":1,"la1":30.2991,"la2":30.254,"lo1":-89.0895,"lo2":-89.0444,"dy":0.0017,"dx":0.0017,"nx":28,"ny":28,"refTime":"2025-04-06T21:00:00:Z","depth":0,"parameterNumber":3,"parameterNumberName":"V-component_of_WINDS"},"data":[0,0,0,0,0,0,0,0,0,0,0,0,0,0,0,0,0,0,0,0,0,0,0,0,0,0,0,0,0,0,0,0,0,0,0,0,0,0,0,0,0,0,0,0,0,0,0,0,0,0,0,0,0,0,0,0,0,0,-4.4307,-4.431,0,-4.457,-4.4573,-4.4576,-4.4573,-4.457,-4.4566,-4.4563,-4.4835,-4.4846,-4.4856,0,0,0,0,0,0,0,0,0,0,0,0,0,-4.3805,-4.3815,-4.4307,-4.431,-4.4313,-4.4569,-4.4573,-4.4577,-4.4574,-4.457,-4.4565,-4.4561,-4.4832,-4.4844,-4.4857,0,0,0,0,0,0,0,0,0,0,0,0,0,-4.4041,-4.3818,-4.4306,-4.4343,-4.4348,-4.4569,-4.4573,-4.4578,-4.4575,-4.4569,-4.4564,-4.4559,-4.4828,-4.4843,-4.4859,-4.5061,0,0,-4.4907,-4.4914,0,0,0,0,0,0,0,0,-4.4028,-4.406,-4.4334,-4.434,-4.4347,-4.4533,-4.4496,-4.474,-4.4576,-4.4489,-4.4563,-4.4557,-4.4739,-4.4762,-4.4823,-4.5074,-4.5085,-4.4908,-4.4918,-4.4925,-4.4929,0,0,0,0,0,0,0,-4.4012,-4.4048,-4.4411,-4.4338,-4.4346,-4.4347,-4.4375,-4.4542,-4.464,-4.4496,-4.4497,-4.4528,-4.4742,-4.4808,-4.4829,-4.5089,-4.4908,-4.4922,-4.4932,-4.4938,-4.5521,-4.5527,0,0,0,0,0,0,-4.3987,-4.4035,-4.4402,-4.4419,-4.4171,-4.436,-4.4391,-4.4479,-4.4639,-4.4658,-4.4532,-4.4526,-4.4783,-4.4811,-4.4839,-4.5088,-4.4925,-4.4939,-4.4948,-4.5515,-4.5523,-4.5529,0,0,0,0,0,0,-4.3976,-4.402,-4.4392,-4.4227,-4.4274,-4.4375,-4.4473,-4.4487,-4.4553,-4.4665,-4.4683,-4.4581,-4.478,-4.4817,-4.5006,-4.5097,-4.4946,-4.4961,-4.5508,-4.5518,-4.5526,-4.5586,0,0,0,0,0,0,-4.3962,-4.4016,-4.4093,-4.4229,-4.4283,-4.4554,-4.4479,-4.4496,-4.458,-4.4575,-4.4716,-4.4735,-4.4779,-4.4983,-4.5022,-4.5116,-4.4973,-4.5501,-4.5513,-4.5523,-4.5576,-4.5596,-4.5613,0,0,0,0,0,-4.3944,-4.41,-4.4097,-4.4141,-4.4381,-4.4559,-4.459,-4.4637,-4.4587,-4.4666,-4.4739,-4.473,-4.5081,-4.5002,-4.5046,-4.5147,-4.5495,-4.5509,-4.5522,-4.5568,-4.5592,-4.5612,0,0,0,0,0,0,-4.3973,-4.4118,-4.4117,-4.432,-4.4427,-4.4558,-4.4659,-4.4661,-4.4785,-4.4776,-4.483,-4.4862,-4.5052,-4.5118,-4.5028,-4.5352,-4.5282,-4.5305,-4.5302,-4.5325,-4.5343,-4.5324,-4.4986,0,0,0,0,0,-4.4003,-4.4134,-4.4254,-4.4422,-4.4476,-4.4558,-4.4637,-4.4664,-4.4778,-4.4823,-4.491,-4.5021,-4.5156,-4.5244,-4.5375,-4.5586,-4.5617,-4.5677,-4.5695,-4.5709,-4.5729,-4.5847,-4.5876,-4.5574,-4.5574,-4.5574,0,0,-4.4066,-4.4162,-4.4241,-4.443,-4.4516,-4.4652,-4.4596,-4.4742,-4.4844,-4.4846,-4.503,-4.5097,-4.5225,-4.5426,-4.5519,-4.5487,-4.5819,-4.5727,-4.5737,-4.5749,-4.5864,-4.5893,-4.5918,-4.5583,-4.5582,-4.558,0,0,-4.4252,-4.4336,-4.4486,-4.4574,-4.4704,-4.4758,-4.4794,-4.4926,-4.497,-4.5156,-4.516,-4.5283,-4.5514,-4.5606,-4.5682,-4.5903,-4.5901,-4.5944,-4.604,-4.6155,-4.6178,-4.62,-4.628,-4.6308,-4.5963,-4.5964,-4.5964,0,-4.4314,-4.4518,-4.4564,-4.4711,-4.4795,-4.4802,-4.4955,-4.5038,-4.5205,-4.5264,-4.5225,-4.5517,-4.5603,-4.5827,-4.5881,-4.5942,-4.5986,-4.5929,-4.6171,-4.6193,-4.6214,-4.6291,-4.6321,-4.5968,-4.5968,-4.5967,-4.5967,0,-4.459,-4.4731,-4.4837,-4.4997,-4.5093,-4.5242,-4.5312,-4.5404,-4.5423,-4.5481,-4.5671,-4.5775,-4.5928,-4.5983,-4.6003,-4.621,-4.6187,-4.6159,-4.609,-4.6246,-4.632,-4.635,-4.5975,-4.5973,-4.5972,-4.597,0,0,-4.4801,-4.4985,-4.5023,-4.5097,-4.5242,-4.5353,-4.5503,-4.5651,-4.573,-4.5845,-4.5974,-4.617,-4.6146,-4.6233,-4.6264,-4.6364,-4.6535,-4.6325,-4.6329,-4.6362,-4.6772,-4.6793,-4.6826,-4.6533,-4.6539,-4.6544,-4.6762,0,-4.5003,-4.5269,-4.5315,-4.5548,-4.568,-4.5689,-4.5821,-4.5925,-4.5984,-4.6106,-4.6171,-4.631,-4.6266,-4.6319,-4.6419,-4.6493,-4.6618,-4.6477,-4.6656,-4.6661,-4.6625,-4.6864,-4.6887,-4.7087,-4.6791,-4.6796,-4.6799,0,-4.5274,-4.5395,-4.5642,-4.577,-4.5827,-4.5944,-4.6085,-4.6201,-4.6319,-4.6355,-4.6453,-4.6472,-4.6631,-4.6554,-4.6773,-4.6677,-4.6752,-4.68,-4.6809,-4.6828,-4.6741,-4.6892,-4.7152,-4.7183,-4.6845,-4.6841,-4.6838,0,-4.5405,-4.563,-4.5807,-4.587,-4.6023,-4.6106,-4.6174,-4.6287,-4.6374,-4.6498,-4.6555,-4.6695,-4.6772,-4.6881,-4.6938,-4.6877,-4.7155,-4.7082,-4.7191,-4.719,-4.725,-4.7246,-4.7527,-4.7296,-4.7296,-4.7295,-4.7295,0,-4.5626,-4.5777,-4.5868,-4.5978,-4.6147,-4.6199,-4.6367,-4.6433,-4.6534,-4.6658,-4.6674,-4.679,-4.6858,-4.6984,-4.703,-4.7206,-4.724,-4.7275,-4.7286,-4.7275,-4.7271,-4.7326,-4.7314,-4.7303,-4.7301,-4.73,-4.7299,0,-4.5802,-4.5869,-4.6063,-4.6192,-4.6229,-4.6348,-4.646,-4.6567,-4.6625,-4.6782,-4.6821,-4.6914,-4.7063,-4.7131,-4.7315,-4.7346,-4.7548,-4.7548,-4.7508,-4.7512,-4.7617,-4.7607,-4.7946,-4.7994,-4.7729,-4.7731,-4.7733,0,-4.594,-4.6056,-4.6198,-4.6281,-4.6351,-4.6485,-4.6574,-4.663,-4.6722,-4.6867,-4.6957,-4.7107,-4.723,-4.7468,-4.7553,-4.7695,-4.7699,-4.7808,-4.7721,-4.7706,-4.7703,-4.7696,-4.7709,-4.7824,-4.7827,-4.7829,-4.7831,0,-4.6177,-4.6205,-4.6331,-4.647,-4.6575,-4.6687,-4.6798,-4.6865,-4.6939,-4.7042,-4.7194,-4.7289,-4.7478,-4.7627,-4.7775,-4.7846,-4.7853,-4.7857,-4.7891,-4.7881,-4.7854,-4.7872,-4.7553,-4.785,-4.7848,-4.7847,-4.7846,-4.7845,-4.634,-4.6444,-4.656,-4.6701,-4.679,-4.6893,-4.7,-4.7072,-4.7199,-4.7357,-4.7382,-4.7546,-4.7663,-4.7862,-4.7939,-4.8068,-4.8042,-4.809,-4.8102,-4.8113,-4.812,-4.7832,-4.8095,-4.8095,-4.8094,-4.8094,-4.8094,0,-4.658,-4.6655,-4.6784,-4.6937,-4.7048,-4.7042,-4.7164,-4.7258,-4.7401,-4.751,-4.763,-4.7807,-4.7952,-4.8048,-4.8195,-4.828,-4.8287,-4.8317,-4.8313,-4.8329,-4.8134,-4.8092,-4.831,-4.831,-4.831,-4.831,-4.831,-4.831,-4.6718,-4.6894,-4.6936,-4.7157,-4.7232,-4.7391,-4.7462,-4.7557,-4.7644,-4.784,-4.796,-4.8021,-4.8126,-4.8281,-4.8414,-4.8439,-4.8493,-4.8525,-4.8549,-4.8365,-4.8343,-4.8321,-4.8282,-4.8536,-4.8537,-4.8734,-4.8736,-4.8737]}]]